User: anonymous   Login
Location: Unspecified
(0.0000°N, 0.0000°E)
Time: 06:55:55
(UTC+00:00)
Language:

STARLINK-33570 - Orbit

View from above orbital plane
View from above orbital plane
View from above satellite
View from above satellite

Ground track
Ground track

The orbit is defined by the following mean orbital elements,

1 62776U          26145.20643419 +.00000000 +00000-0 +71526-3 0 00002
2 62776  53.1594 326.5125 0000638  64.3669 295.7399 15.34398353    00
Epoch (UTC): 25 May 2026 04:57:15
Eccentricity: 0.0000638
inclination: 53.1594°
perigee height: 462 km
apogee height: 463 km
right ascension of ascending node: 326.5125°
argument of perigee: 64.3669°
revolutions per day: 15.34398353
mean anomaly at epoch: 295.7399°

The dashed part of the orbit path shows where the satellite is in the earth's shadow,  

DLR